Wetterdaten: Woche 12.01.09 - 18.01.09 (KW3)
Datum Zeit Temp. Innen Temp. Aussen Feuchte Inne Feuchte Auss Luftdruck Regen ab 0,1 Wind
12.01.2009 00:00 13,5 C -3,5 C 34 % 76 % 1026,8 hPa 0,0 l/m 0,0 km/h (0 Bft)
12.01.2009 01:00 13,5 C -3,7 C 34 % 75 % 1026,6 hPa 0,0 l/m 0,2 km/h (0 Bft)
12.01.2009 02:00 13,5 C -3,8 C 34 % 75 % 1025,8 hPa 0,0 l/m 0,2 km/h (0 Bft)
12.01.2009 03:00 13,4 C -3,8 C 33 % 75 % 1025,7 hPa 0,0 l/m 0,0 km/h (0 Bft)
12.01.2009 04:00 13,4 C -3,9 C 33 % 75 % 1024,8 hPa 0,0 l/m 0,0 km/h (0 Bft)
12.01.2009 05:00 13,4 C -3,9 C 33 % 75 % 1024,7 hPa 0,0 l/m 0,0 km/h (0 Bft)
12.01.2009 06:00 13,4 C -3,8 C 33 % 76 % 1024,0 hPa 0,0 l/m 0,2 km/h (0 Bft)
12.01.2009 07:00 13,4 C -3,5 C 33 % 76 % 1023,7 hPa 0,0 l/m 0,1 km/h (0 Bft)
12.01.2009 08:00 13,4 C -3,4 C 33 % 76 % 1022,9 hPa 0,0 l/m 0,1 km/h (0 Bft)
12.01.2009 09:00 13,4 C -2,8 C 33 % 76 % 1022,6 hPa 0,0 l/m 0,0 km/h (0 Bft)
12.01.2009 10:00 13,4 C -1,3 C 33 % 75 % 1022,6 hPa 0,0 l/m 0,5 km/h (0 Bft)
12.01.2009 11:00 13,4 C 0,7 C 34 % 71 % 1022,6 hPa 0,0 l/m 0,4 km/h (0 Bft)
12.01.2009 12:00 13,5 C 2,4 C 34 % 68 % 1021,7 hPa 0,5 l/m 0,1 km/h (0 Bft)
12.01.2009 13:00 13,6 C 2,5 C 35 % 68 % 1020,4 hPa 0,0 l/m 0,6 km/h (0 Bft)
12.01.2009 14:00 13,6 C 2,6 C 35 % 68 % 1019,2 hPa 0,0 l/m 0,7 km/h (0 Bft)
12.01.2009 15:00 13,7 C 2,7 C 35 % 68 % 1018,5 hPa 0,0 l/m 0,3 km/h (0 Bft)
12.01.2009 16:00 13,8 C 2,3 C 35 % 70 % 1018,5 hPa 0,0 l/m 0,2 km/h (0 Bft)
12.01.2009 17:00 13,8 C 1,7 C 35 % 70 % 1018,1 hPa 0,0 l/m 0,1 km/h (0 Bft)
12.01.2009 18:00 13,9 C 1,3 C 35 % 71 % 1017,3 hPa 0,0 l/m 0,2 km/h (0 Bft)
12.01.2009 19:00 14,0 C 1,3 C 35 % 71 % 1016,5 hPa 0,0 l/m 0,0 km/h (0 Bft)
12.01.2009 20:00 14,0 C 1,3 C 35 % 73 % 1016,5 hPa 0,0 l/m 0,0 km/h (0 Bft)
12.01.2009 21:00 14,1 C 1,6 C 36 % 75 % 1015,9 hPa 0,0 l/m 0,2 km/h (0 Bft)
12.01.2009 22:00 14,1 C 2,0 C 36 % 75 % 1015,5 hPa 0,0 l/m 0,0 km/h (0 Bft)
12.01.2009 23:00 14,2 C 2,3 C 36 % 76 % 1015,1 hPa 0,0 l/m 0,0 km/h (0 Bft)
13.01.2009 00:00 14,2 C 2,4 C 36 % 75 % 1014,5 hPa 0,0 l/m 0,0 km/h (0 Bft)
13.01.2009 01:00 14,2 C 2,7 C 36 % 75 % 1014,5 hPa 0,0 l/m 0,2 km/h (0 Bft)
13.01.2009 02:00 14,3 C 2,8 C 36 % 75 % 1014,5 hPa 0,0 l/m 0,0 km/h (0 Bft)
13.01.2009 03:00 14,4 C 3,7 C 37 % 79 % 1014,3 hPa 0,0 l/m 1,9 km/h (1 Bft)
13.01.2009 04:00 14,4 C 4,8 C 38 % 83 % 1013,6 hPa 0,0 l/m 4,8 km/h (1 Bft)
13.01.2009 05:00 14,4 C 4,8 C 38 % 82 % 1013,5 hPa 0,0 l/m 2,3 km/h (1 Bft)
13.01.2009 06:00 14,5 C 4,6 C 38 % 84 % 1013,5 hPa 0,0 l/m 1,2 km/h (1 Bft)
13.01.2009 07:00 14,6 C 4,0 C 39 % 85 % 1013,5 hPa 0,0 l/m 0,0 km/h (0 Bft)
13.01.2009 08:00 14,7 C 3,2 C 39 % 85 % 1013,5 hPa 0,0 l/m 0,0 km/h (0 Bft)
13.01.2009 09:00 14,7 C 2,9 C 39 % 86 % 1013,9 hPa 0,5 l/m 0,0 km/h (0 Bft)
13.01.2009 10:00 14,7 C 2,7 C 39 % 86 % 1014,5 hPa 0,0 l/m 0,0 km/h (0 Bft)
13.01.2009 11:00 14,7 C 3,0 C 40 % 87 % 1014,5 hPa 1,6 l/m 0,0 km/h (0 Bft)
13.01.2009 12:00 14,7 C 3,6 C 43 % 87 % 1013,6 hPa 0,5 l/m 0,0 km/h (0 Bft)
13.01.2009 13:00 14,9 C 3,1 C 43 % 88 % 1013,0 hPa 0,0 l/m 0,0 km/h (0 Bft)
13.01.2009 14:00 15,0 C 3,1 C 43 % 88 % 1012,5 hPa 0,0 l/m 0,0 km/h (0 Bft)
13.01.2009 15:00 15,0 C 3,2 C 43 % 88 % 1012,5 hPa 0,0 l/m 0,0 km/h (0 Bft)
13.01.2009 16:00 15,0 C 3,5 C 43 % 87 % 1012,5 hPa 0,5 l/m 0,0 km/h (0 Bft)
13.01.2009 17:00 15,0 C 3,3 C 43 % 87 % 1012,5 hPa 0,0 l/m 0,0 km/h (0 Bft)
13.01.2009 18:00 15,0 C 3,1 C 42 % 86 % 1012,5 hPa 0,0 l/m 0,0 km/h (0 Bft)
13.01.2009 19:00 15,0 C 2,9 C 42 % 86 % 1012,5 hPa 0,0 l/m 0,0 km/h (0 Bft)
13.01.2009 20:00 15,0 C 2,9 C 42 % 86 % 1012,5 hPa 0,0 l/m 0,0 km/h (0 Bft)
13.01.2009 21:00 15,0 C 2,8 C 42 % 86 % 1012,5 hPa 0,5 l/m 0,0 km/h (0 Bft)
13.01.2009 22:00 15,1 C 2,7 C 42 % 86 % 1012,5 hPa 0,0 l/m 0,0 km/h (0 Bft)
13.01.2009 23:00 15,1 C 2,8 C 42 % 86 % 1012,5 hPa 0,0 l/m 0,0 km/h (0 Bft)
14.01.2009 00:00 15,1 C 2,7 C 42 % 86 % 1012,5 hPa 0,5 l/m 0,0 km/h (0 Bft)
14.01.2009 01:00 15,1 C 2,5 C 42 % 87 % 1012,5 hPa 0,5 l/m 0,0 km/h (0 Bft)
14.01.2009 02:00 15,2 C 2,4 C 42 % 87 % 1012,5 hPa 0,5 l/m 0,0 km/h (0 Bft)
14.01.2009 03:00 15,1 C 2,4 C 42 % 88 % 1012,5 hPa 0,5 l/m 0,0 km/h (0 Bft)
14.01.2009 04:00 15,2 C 2,7 C 42 % 88 % 1012,5 hPa 0,0 l/m 0,0 km/h (0 Bft)
14.01.2009 05:00 15,2 C 3,0 C 42 % 88 % 1012,5 hPa 0,0 l/m 0,0 km/h (0 Bft)
14.01.2009 06:00 15,2 C 3,3 C 42 % 89 % 1012,5 hPa 0,0 l/m 0,0 km/h (0 Bft)
14.01.2009 07:00 15,2 C 3,5 C 42 % 89 % 1013,1 hPa 0,0 l/m 0,0 km/h (0 Bft)
14.01.2009 08:00 15,4 C 3,6 C 44 % 89 % 1013,5 hPa 0,0 l/m 0,0 km/h (0 Bft)
14.01.2009 09:00 15,3 C 3,7 C 44 % 89 % 1013,7 hPa 0,0 l/m 0,0 km/h (0 Bft)
14.01.2009 10:00 15,4 C 3,8 C 45 % 89 % 1014,5 hPa 0,0 l/m 0,1 km/h (0 Bft)
14.01.2009 11:00 15,4 C 3,9 C 44 % 90 % 1014,5 hPa 0,0 l/m 0,0 km/h (0 Bft)
14.01.2009 12:00 15,4 C 4,2 C 44 % 90 % 1014,5 hPa 0,0 l/m 0,3 km/h (0 Bft)
14.01.2009 13:00 15,4 C 4,4 C 44 % 90 % 1014,5 hPa 0,0 l/m 0,0 km/h (0 Bft)
14.01.2009 14:00 15,3 C 4,4 C 44 % 90 % 1014,5 hPa 0,0 l/m 0,0 km/h (0 Bft)
14.01.2009 15:00 15,3 C 4,4 C 44 % 90 % 1015,1 hPa 0,0 l/m 0,0 km/h (0 Bft)
14.01.2009 16:00 15,3 C 4,2 C 44 % 90 % 1015,5 hPa 0,0 l/m 0,0 km/h (0 Bft)
14.01.2009 17:00 15,2 C 4,0 C 44 % 90 % 1016,3 hPa 0,0 l/m 0,0 km/h (0 Bft)
14.01.2009 18:00 15,3 C 3,7 C 44 % 89 % 1016,8 hPa 0,0 l/m 0,0 km/h (0 Bft)
14.01.2009 19:00 15,5 C 3,5 C 44 % 89 % 1017,5 hPa 0,0 l/m 0,0 km/h (0 Bft)
14.01.2009 20:00 15,5 C 3,3 C 44 % 89 % 1017,5 hPa 0,0 l/m 0,0 km/h (0 Bft)
14.01.2009 21:00 15,5 C 3,2 C 44 % 89 % 1017,8 hPa 0,0 l/m 0,0 km/h (0 Bft)
14.01.2009 22:00 15,5 C 3,1 C 44 % 89 % 1018,5 hPa 0,0 l/m 0,0 km/h (0 Bft)
14.01.2009 23:00 15,5 C 3,0 C 44 % 89 % 1018,5 hPa 0,0 l/m 0,0 km/h (0 Bft)
15.01.2009 00:00 15,5 C 2,9 C 44 % 89 % 1018,5 hPa 0,0 l/m 0,0 km/h (0 Bft)
15.01.2009 01:00 15,5 C 2,9 C 43 % 89 % 1018,5 hPa 0,0 l/m 0,0 km/h (0 Bft)
15.01.2009 02:00 15,6 C 2,8 C 43 % 89 % 1018,5 hPa 0,0 l/m 0,0 km/h (0 Bft)
15.01.2009 03:00 15,6 C 2,7 C 43 % 89 % 1018,5 hPa 0,0 l/m 0,0 km/h (0 Bft)
15.01.2009 04:00 15,6 C 2,5 C 43 % 88 % 1019,5 hPa 0,0 l/m 0,0 km/h (0 Bft)
15.01.2009 05:00 15,6 C 2,3 C 43 % 88 % 1019,5 hPa 0,0 l/m 0,0 km/h (0 Bft)
15.01.2009 06:00 15,6 C 2,1 C 43 % 88 % 1019,5 hPa 0,0 l/m 0,0 km/h (0 Bft)
15.01.2009 07:00 15,6 C 1,8 C 43 % 88 % 1020,0 hPa 0,0 l/m 0,0 km/h (0 Bft)
15.01.2009 08:00 15,6 C 1,2 C 42 % 88 % 1020,6 hPa 0,0 l/m 0,0 km/h (0 Bft)
15.01.2009 09:00 15,6 C 1,2 C 42 % 88 % 1020,6 hPa 0,0 l/m 0,0 km/h (0 Bft)
15.01.2009 10:00 15,6 C 2,0 C 42 % 88 % 1020,6 hPa 0,0 l/m 0,0 km/h (0 Bft)
15.01.2009 11:00 15,6 C 3,2 C 42 % 87 % 1020,5 hPa 0,0 l/m 0,0 km/h (0 Bft)
15.01.2009 12:00 15,6 C 5,4 C 42 % 83 % 1020,5 hPa 0,0 l/m 0,1 km/h (0 Bft)
15.01.2009 13:00 15,6 C 6,8 C 42 % 73 % 1019,8 hPa 0,0 l/m 0,5 km/h (0 Bft)
15.01.2009 14:00 15,8 C 6,9 C 42 % 70 % 1019,5 hPa 0,0 l/m 0,0 km/h (0 Bft)
15.01.2009 15:00 15,8 C 5,9 C 41 % 69 % 1019,5 hPa 0,0 l/m 0,0 km/h (0 Bft)
15.01.2009 16:00 15,8 C 4,3 C 41 % 72 % 1020,5 hPa 0,0 l/m 0,0 km/h (0 Bft)
15.01.2009 17:00 15,8 C 2,7 C 42 % 75 % 1020,5 hPa 0,0 l/m 0,0 km/h (0 Bft)
15.01.2009 18:00 15,8 C 1,9 C 43 % 77 % 1020,6 hPa 0,0 l/m 0,0 km/h (0 Bft)
15.01.2009 19:00 15,8 C 1,5 C 43 % 78 % 1020,6 hPa 0,0 l/m 0,0 km/h (0 Bft)
15.01.2009 20:00 15,8 C 0,9 C 42 % 79 % 1020,7 hPa 0,0 l/m 0,0 km/h (0 Bft)
15.01.2009 21:00 15,8 C 0,3 C 42 % 80 % 1021,6 hPa 0,0 l/m 0,0 km/h (0 Bft)
15.01.2009 22:00 15,8 C 0,2 C 41 % 81 % 1021,6 hPa 0,0 l/m 0,0 km/h (0 Bft)
15.01.2009 23:00 15,7 C 0,2 C 41 % 81 % 1021,6 hPa 0,0 l/m 0,1 km/h (0 Bft)
16.01.2009 00:00 15,7 C -0,1 C 41 % 81 % 1021,4 hPa 0,0 l/m 0,0 km/h (0 Bft)
16.01.2009 01:00 15,6 C -0,2 C 41 % 82 % 1020,6 hPa 0,0 l/m 0,0 km/h (0 Bft)
16.01.2009 02:00 15,6 C -0,2 C 40 % 82 % 1020,6 hPa 0,0 l/m 0,0 km/h (0 Bft)
16.01.2009 03:00 15,6 C -0,2 C 40 % 83 % 1020,6 hPa 0,0 l/m 0,0 km/h (0 Bft)
16.01.2009 04:00 15,5 C -0,2 C 40 % 84 % 1020,6 hPa 0,0 l/m 0,6 km/h (0 Bft)
16.01.2009 05:00 15,5 C -0,1 C 40 % 85 % 1020,6 hPa 0,0 l/m 0,5 km/h (0 Bft)
16.01.2009 06:00 15,5 C 0,1 C 40 % 85 % 1020,6 hPa 0,0 l/m 0,3 km/h (0 Bft)
16.01.2009 07:00 15,4 C 0,1 C 40 % 86 % 1020,4 hPa 0,0 l/m 0,4 km/h (0 Bft)
16.01.2009 08:00 15,4 C 0,4 C 40 % 85 % 1020,1 hPa 0,0 l/m 1,4 km/h (1 Bft)
16.01.2009 09:00 15,4 C 0,6 C 40 % 85 % 1020,2 hPa 0,0 l/m 2,7 km/h (1 Bft)
16.01.2009 10:00 15,4 C 1,0 C 40 % 84 % 1020,6 hPa 0,0 l/m 0,2 km/h (0 Bft)
16.01.2009 11:00 15,4 C 1,4 C 40 % 83 % 1020,6 hPa 0,0 l/m 1,1 km/h (1 Bft)
16.01.2009 12:00 15,4 C 2,0 C 40 % 82 % 1020,0 hPa 0,0 l/m 1,1 km/h (1 Bft)
16.01.2009 13:00 15,4 C 2,4 C 40 % 80 % 1019,5 hPa 0,0 l/m 0,8 km/h (0 Bft)
16.01.2009 14:00 15,5 C 2,5 C 40 % 80 % 1019,5 hPa 0,0 l/m 0,3 km/h (0 Bft)
16.01.2009 15:00 15,4 C 2,6 C 40 % 80 % 1019,5 hPa 0,0 l/m 0,1 km/h (0 Bft)
16.01.2009 16:00 15,4 C 2,4 C 40 % 80 % 1019,5 hPa 0,0 l/m 0,0 km/h (0 Bft)
16.01.2009 17:00 15,5 C 2,2 C 40 % 81 % 1019,5 hPa 0,0 l/m 0,1 km/h (0 Bft)
16.01.2009 18:00 15,5 C 2,2 C 40 % 81 % 1019,5 hPa 0,0 l/m 0,0 km/h (0 Bft)
16.01.2009 19:00 15,5 C 2,2 C 40 % 81 % 1019,5 hPa 0,0 l/m 0,2 km/h (0 Bft)
16.01.2009 20:00 15,5 C 2,3 C 40 % 81 % 1019,5 hPa 0,0 l/m 0,2 km/h (0 Bft)
16.01.2009 21:00 15,6 C 2,4 C 40 % 81 % 1019,5 hPa 0,0 l/m 0,2 km/h (0 Bft)
16.01.2009 22:00 15,6 C 2,4 C 40 % 81 % 1019,4 hPa 0,0 l/m 0,0 km/h (0 Bft)
16.01.2009 23:00 15,6 C 2,5 C 40 % 82 % 1018,9 hPa 0,0 l/m 0,0 km/h (0 Bft)
17.01.2009 00:00 15,6 C 2,5 C 40 % 82 % 1018,5 hPa 0,0 l/m 0,0 km/h (0 Bft)
17.01.2009 01:00 15,6 C 2,4 C 41 % 82 % 1018,5 hPa 0,0 l/m 0,0 km/h (0 Bft)
17.01.2009 02:00 15,6 C 2,2 C 41 % 83 % 1018,5 hPa 0,0 l/m 0,0 km/h (0 Bft)
17.01.2009 03:00 15,6 C 2,0 C 41 % 83 % 1018,5 hPa 0,0 l/m 0,0 km/h (0 Bft)
17.01.2009 04:00 15,6 C 2,1 C 41 % 84 % 1018,4 hPa 0,0 l/m 0,0 km/h (0 Bft)
17.01.2009 05:00 15,6 C 2,1 C 41 % 84 % 1017,5 hPa 0,0 l/m 0,0 km/h (0 Bft)
17.01.2009 06:00 15,6 C 2,3 C 41 % 86 % 1017,2 hPa 0,0 l/m 0,0 km/h (0 Bft)
17.01.2009 07:00 15,7 C 2,6 C 41 % 86 % 1016,7 hPa 0,0 l/m 0,0 km/h (0 Bft)
17.01.2009 08:00 15,7 C 2,5 C 41 % 86 % 1016,6 hPa 0,0 l/m 0,0 km/h (0 Bft)
17.01.2009 09:00 15,7 C 2,1 C 41 % 86 % 1016,5 hPa 0,0 l/m 0,0 km/h (0 Bft)
17.01.2009 10:00 15,7 C 2,6 C 41 % 87 % 1016,5 hPa 0,0 l/m 0,1 km/h (0 Bft)
17.01.2009 11:00 15,8 C 4,5 C 41 % 87 % 1016,0 hPa 0,0 l/m 0,1 km/h (0 Bft)
17.01.2009 12:00 15,7 C 7,1 C 42 % 83 % 1014,9 hPa 0,0 l/m 0,2 km/h (0 Bft)
17.01.2009 13:00 15,8 C 8,8 C 42 % 77 % 1014,2 hPa 0,0 l/m 2,5 km/h (1 Bft)
17.01.2009 14:00 15,8 C 8,5 C 42 % 76 % 1013,4 hPa 0,0 l/m 1,7 km/h (1 Bft)
17.01.2009 15:00 15,9 C 7,4 C 43 % 80 % 1013,4 hPa 0,0 l/m 3,6 km/h (1 Bft)
17.01.2009 16:00 15,9 C 6,7 C 43 % 83 % 1013,5 hPa 0,5 l/m 1,6 km/h (1 Bft)
17.01.2009 17:00 16,0 C 6,3 C 43 % 83 % 1013,5 hPa 0,0 l/m 0,7 km/h (0 Bft)
17.01.2009 18:00 16,0 C 5,9 C 43 % 84 % 1013,5 hPa 0,0 l/m 0,8 km/h (0 Bft)
17.01.2009 19:00 16,0 C 5,4 C 43 % 84 % 1013,7 hPa 0,0 l/m 0,6 km/h (0 Bft)
17.01.2009 20:00 16,0 C 5,1 C 43 % 84 % 1013,3 hPa 0,0 l/m 0,1 km/h (0 Bft)
17.01.2009 21:00 16,1 C 4,8 C 43 % 84 % 1012,5 hPa 0,0 l/m 0,1 km/h (0 Bft)
17.01.2009 22:00 16,1 C 4,0 C 43 % 85 % 1011,7 hPa 0,0 l/m 0,0 km/h (0 Bft)
17.01.2009 23:00 16,1 C 3,6 C 43 % 85 % 1010,5 hPa 0,0 l/m 0,0 km/h (0 Bft)
18.01.2009 00:00 16,1 C 3,3 C 43 % 84 % 1010,6 hPa 0,0 l/m 0,0 km/h (0 Bft)
18.01.2009 01:00 16,1 C 3,6 C 43 % 85 % 1009,4 hPa 0,0 l/m 0,1 km/h (0 Bft)
18.01.2009 02:00 16,1 C 4,2 C 43 % 84 % 1007,4 hPa 0,0 l/m 0,1 km/h (0 Bft)
18.01.2009 03:00 16,1 C 4,7 C 43 % 84 % 1004,8 hPa 0,0 l/m 0,1 km/h (0 Bft)
18.01.2009 04:00 16,1 C 5,5 C 43 % 84 % 1002,8 hPa 0,0 l/m 1,1 km/h (1 Bft)
18.01.2009 05:00 16,1 C 6,7 C 43 % 81 % 1002,4 hPa 0,0 l/m 2,4 km/h (1 Bft)
18.01.2009 06:00 16,1 C 6,3 C 43 % 82 % 1001,9 hPa 2,1 l/m 1,2 km/h (1 Bft)
18.01.2009 07:00 16,2 C 5,6 C 43 % 86 % 999,9 hPa 1,0 l/m 1,5 km/h (1 Bft)
18.01.2009 08:00 16,2 C 5,9 C 43 % 87 % 999,4 hPa 0,0 l/m 1,1 km/h (1 Bft)
18.01.2009 09:00 16,2 C 5,8 C 44 % 86 % 998,0 hPa 0,5 l/m 1,1 km/h (1 Bft)
18.01.2009 10:00 16,2 C 5,6 C 44 % 84 % 997,2 hPa 0,0 l/m 0,3 km/h (0 Bft)
18.01.2009 11:00 16,2 C 5,2 C 44 % 85 % 996,1 hPa 0,5 l/m 0,0 km/h (0 Bft)
18.01.2009 12:00 16,2 C 5,5 C 44 % 85 % 995,0 hPa 0,5 l/m 0,8 km/h (0 Bft)
18.01.2009 13:00 16,3 C 6,3 C 44 % 85 % 994,4 hPa 0,0 l/m 1,2 km/h (1 Bft)
18.01.2009 14:00 16,5 C 6,1 C 44 % 85 % 995,2 hPa 1,6 l/m 4,2 km/h (1 Bft)
18.01.2009 15:00 16,4 C 6,1 C 44 % 85 % 995,9 hPa 0,5 l/m 3,3 km/h (1 Bft)
18.01.2009 16:00 16,4 C 5,4 C 44 % 85 % 996,9 hPa 0,5 l/m 2,8 km/h (1 Bft)
18.01.2009 17:00 16,3 C 4,8 C 44 % 85 % 998,4 hPa 0,5 l/m 5,8 km/h (2 Bft)
18.01.2009 18:00 16,3 C 4,4 C 44 % 85 % 999,9 hPa 0,0 l/m 3,5 km/h (1 Bft)
18.01.2009 19:00 16,3 C 4,3 C 44 % 85 % 1001,3 hPa 0,0 l/m 1,6 km/h (1 Bft)
18.01.2009 20:00 16,3 C 4,1 C 44 % 85 % 1002,3 hPa 0,0 l/m 3,6 km/h (1 Bft)
18.01.2009 21:00 16,3 C 3,7 C 43 % 84 % 1003,0 hPa 0,0 l/m 1,5 km/h (1 Bft)
18.01.2009 22:00 16,4 C 3,5 C 44 % 84 % 1003,7 hPa 0,0 l/m 2,6 km/h (1 Bft)
18.01.2009 23:00 16,7 C 3,3 C 43 % 84 % 1004,5 hPa 0,0 l/m 1,9 km/h (1 Bft)
Min-Datum _ 12.01.09 12.01.09 12.01.09 12.01.09 18.01.09 - 12.01.09
_ Min-Zeit 02:08 03:28 02:08 12:28 12:34 - 00:00
Minimum _ 13,4 C -3,9 C 33 % 67 % 994,4 hPa - 0,0 km/h (0 Bft)
Max-Datum _ 18.01.09 17.01.09 14.01.09 14.01.09 12.01.09 18.01.09 18.01.09
_ Max-Zeit 23:02 13:40 10:16 11:10 00:00 06:18 17:22
Maximum _ 16,8 C 8,9 C 45 % 90 % 1027,7 hPa 2,1 l/m 25,8 km/h
N-NW (4 Bft)
Durchschnitt _ 15,3 C 2,8 C 41 % 83 % 1015,1 hPa #14,5 l/m 0,5 km/h (0 Bft)
© 2012 W. Hausmann